Location: Heiligenberg
(48.5381°N, 7.3897°E)
Time: 00:19:27
(UTC+00:00)

CZ-2C R/B - Pass Details

Date: 26 May 2022
Orbit: 667 x 784 km, 98.3° (Epoch: 02 July)

Event Time Altitude Azimuth Distance (km) Brightness Sun altitude
Rises 02:31:40 0° 19° (NNE) 3,274 7.2 -9.1°
Reaches altitude 10° 02:34:10 10° 27° (NNE) 2,332 6.4 -8.9°
Maximum altitude 02:39:00 39° 97° (E) 1,126 3.8 -8.3°
Drops below altitude 10° 02:43:40 10° 166° (SSE) 2,259 4.6 -7.8°
Sets 02:46:03 0° 174° (S) 3,159 5.3 -7.5°
